Tracking 30701 objects as of 14-Jun-2025
HD Live streaming from Space Station
objects crossing your sky now

CENTISPACE-1 S4

Track CENTISPACE-1 S4 now!
10-day predictions


NORAD ID: 53758
Int'l Code: 2022-108B
Perigee: 689.3 km
Apogee: 704.0 km
Inclination: 53.5 °
Period: 98.6 minutes
Semi major axis: 7067 km
RCS: Unknown
Launch date: September 6, 2022
Source: People's Republic of China (PRC)
Launch site: Jiuquan Satellite Launch Center, China (JSC)
Your satellite tracking list
Your tracking list is empty




NASA's NSSDC Master Catalog

Two Line Element Set (TLE):
1 53758U 22108B   25165.55062108  .00000361  00000-0  11110-3 0  9994
2 53758  53.5289 133.8096 0010395  73.8789 286.3329 14.61143222147801
Source of the keplerian elements: AFSPC